TimeEST,TemperatureF,Dew PointF,Humidity,Sea Level PressureIn,VisibilityMPH,Wind Direction,Wind SpeedMPH,Gust SpeedMPH,PrecipitationIn,Events,Conditions,WindDirDegrees,DateUTC
12:15 AM,59.0,59.0,100,30.20,7.0,Calm,Calm,-,N/A,,Overcast,0,2013-11-16 05:15:00
12:35 AM,59.0,59.0,100,30.20,5.0,Calm,Calm,-,N/A,,Overcast,0,2013-11-16 05:35:00
12:55 AM,59.0,59.0,100,30.20,5.0,Calm,Calm,-,N/A,,Overcast,0,2013-11-16 05:55:00
1:15 AM,59.0,59.0,100,30.20,5.0,Calm,Calm,-,N/A,Rain,Light Rain,0,2013-11-16 06:15:00
1:35 AM,59.0,59.0,100,30.19,5.0,Calm,Calm,-,0.01,Rain,Light Rain,0,2013-11-16 06:35:00
1:55 AM,59.0,59.0,100,30.19,7.0,Calm,Calm,-,0.01,,Overcast,0,2013-11-16 06:55:00
2:15 AM,59.0,59.0,100,30.19,5.0,Calm,Calm,-,N/A,,Overcast,0,2013-11-16 07:15:00
2:35 AM,59.0,59.0,100,30.19,7.0,Calm,Calm,-,N/A,,Overcast,0,2013-11-16 07:35:00
2:55 AM,59.0,59.0,100,30.19,5.0,Calm,Calm,-,N/A,,Overcast,0,2013-11-16 07:55:00
3:15 AM,59.0,59.0,100,30.19,4.0,Calm,Calm,-,N/A,,Overcast,0,2013-11-16 08:15:00
3:35 AM,59.0,59.0,100,30.20,5.0,Calm,Calm,-,N/A,,Overcast,0,2013-11-16 08:35:00
3:55 AM,59.0,59.0,100,30.20,4.0,Calm,Calm,-,N/A,,Overcast,0,2013-11-16 08:55:00
4:15 AM,59.0,59.0,100,30.20,5.0,Calm,Calm,-,N/A,,Overcast,0,2013-11-16 09:15:00
4:35 AM,59.0,59.0,100,30.20,7.0,Calm,Calm,-,N/A,,Overcast,0,2013-11-16 09:35:00
4:55 AM,59.0,59.0,100,30.20,5.0,Calm,Calm,-,N/A,,Overcast,0,2013-11-16 09:55:00
5:15 AM,59.0,59.0,100,30.20,5.0,Calm,Calm,-,N/A,,Overcast,0,2013-11-16 10:15:00
5:35 AM,59.0,59.0,100,30.20,5.0,Calm,Calm,-,N/A,,Overcast,0,2013-11-16 10:35:00
5:55 AM,59.0,59.0,100,30.20,4.0,Calm,Calm,-,N/A,,Overcast,0,2013-11-16 10:55:00
6:15 AM,59.0,59.0,100,30.21,0.5,Calm,Calm,-,N/A,Fog,Fog,0,2013-11-16 11:15:00
6:35 AM,59.0,59.0,100,30.21,0.5,Calm,Calm,-,N/A,Fog,Fog,0,2013-11-16 11:35:00
6:55 AM,59.0,59.0,100,30.22,0.2,NE,4.6,-,N/A,Fog,Fog,40,2013-11-16 11:55:00
7:15 AM,59.0,59.0,100,30.22,0.2,Calm,Calm,-,N/A,Rain,Light Rain,0,2013-11-16 12:15:00
7:35 AM,59.0,59.0,100,30.22,0.2,Calm,Calm,-,N/A,Rain,Rain,0,2013-11-16 12:35:00
7:55 AM,59.0,59.0,100,30.23,0.2,NNE,3.5,-,N/A,Rain,Light Rain,30,2013-11-16 12:55:00
8:15 AM,59.0,59.0,100,30.23,0.2,Calm,Calm,-,N/A,Rain,Light Rain,0,2013-11-16 13:15:00
8:35 AM,59.0,59.0,100,30.23,0.2,NNE,3.5,-,N/A,Rain,Light Rain,30,2013-11-16 13:35:00
8:55 AM,60.8,60.8,100,30.23,0.2,Calm,Calm,-,N/A,Rain,Light Rain,0,2013-11-16 13:55:00
9:15 AM,60.8,60.8,100,30.23,2.5,Calm,Calm,-,0.01,,Mostly Cloudy,0,2013-11-16 14:15:00
9:35 AM,62.6,62.6,100,30.23,5.0,Calm,Calm,-,0.01,,Scattered Clouds,0,2013-11-16 14:35:00
9:55 AM,64.4,64.4,100,30.23,5.0,Calm,Calm,-,0.01,,Clear,0,2013-11-16 14:55:00
10:15 AM,68.0,64.4,88,30.23,5.0,NNE,4.6,-,N/A,,Clear,20,2013-11-16 15:15:00
10:35 AM,69.8,64.4,83,30.23,5.0,ENE,3.5,-,N/A,,Haze,60,2013-11-16 15:35:00
10:55 AM,71.6,60.8,69,30.23,7.0,Calm,Calm,-,N/A,,Clear,0,2013-11-16 15:55:00
11:15 AM,71.6,60.8,69,30.23,5.0,NNE,5.8,-,N/A,,Haze,30,2013-11-16 16:15:00
11:35 AM,73.4,60.8,65,30.22,7.0,ESE,4.6,-,N/A,,Overcast,120,2013-11-16 16:35:00
11:55 AM,73.4,59.0,61,30.21,7.0,ENE,4.6,-,N/A,,Overcast,70,2013-11-16 16:55:00
12:15 PM,73.4,59.0,61,30.20,7.0,NE,5.8,-,N/A,,Overcast,40,2013-11-16 17:15:00
12:35 PM,73.4,59.0,61,30.20,7.0,East,3.5,-,N/A,,Overcast,100,2013-11-16 17:35:00
12:55 PM,75.2,59.0,57,30.19,5.0,North,6.9,-,N/A,,Haze,10,2013-11-16 17:55:00
1:15 PM,73.4,59.0,61,30.19,7.0,East,4.6,-,N/A,,Mostly Cloudy,80,2013-11-16 18:15:00
1:35 PM,73.4,57.2,57,30.18,5.0,Calm,Calm,-,N/A,,Haze,0,2013-11-16 18:35:00
1:55 PM,73.4,57.2,57,30.17,7.0,Calm,Calm,-,N/A,,Overcast,0,2013-11-16 18:55:00
2:15 PM,73.4,57.2,57,30.17,7.0,Calm,Calm,-,N/A,,Overcast,0,2013-11-16 19:15:00
2:35 PM,73.4,59.0,61,30.17,7.0,Calm,Calm,-,N/A,,Overcast,0,2013-11-16 19:35:00
2:55 PM,71.6,59.0,64,30.17,7.0,Calm,Calm,-,N/A,,Mostly Cloudy,0,2013-11-16 19:55:00
3:15 PM,71.6,59.0,64,30.16,7.0,Calm,Calm,-,N/A,,Scattered Clouds,0,2013-11-16 20:15:00
3:35 PM,71.6,59.0,64,30.17,7.0,Calm,Calm,-,N/A,,Mostly Cloudy,0,2013-11-16 20:35:00
3:55 PM,73.4,59.0,61,30.17,7.0,ESE,4.6,-,N/A,,Mostly Cloudy,110,2013-11-16 20:55:00
4:15 PM,73.4,59.0,61,30.17,5.0,East,3.5,-,N/A,,Haze,100,2013-11-16 21:15:00
4:35 PM,69.8,60.8,73,30.17,7.0,Calm,Calm,-,N/A,,Scattered Clouds,0,2013-11-16 21:35:00
4:55 PM,69.8,60.8,73,30.17,7.0,Calm,Calm,-,N/A,,Clear,0,2013-11-16 21:55:00
5:15 PM,68.0,60.8,78,30.17,7.0,Calm,Calm,-,N/A,,Clear,0,2013-11-16 22:15:00
5:35 PM,64.4,60.8,88,30.17,7.0,Calm,Calm,-,N/A,,Clear,0,2013-11-16 22:35:00
5:55 PM,60.8,60.8,100,30.18,7.0,Calm,Calm,-,N/A,,Clear,0,2013-11-16 22:55:00
6:15 PM,60.8,60.8,100,30.18,7.0,Calm,Calm,-,N/A,,Clear,0,2013-11-16 23:15:00
6:35 PM,59.0,59.0,100,30.18,10.0,Calm,Calm,-,N/A,,Clear,0,2013-11-16 23:35:00
6:55 PM,59.0,59.0,100,30.19,7.0,Calm,Calm,-,N/A,,Clear,0,2013-11-16 23:55:00
7:15 PM,57.2,57.2,100,30.18,7.0,Calm,Calm,-,N/A,,Clear,0,2013-11-17 00:15:00
7:35 PM,57.2,57.2,100,30.19,7.0,Calm,Calm,-,N/A,,Clear,0,2013-11-17 00:35:00
7:55 PM,55.4,55.4,100,30.20,7.0,Calm,Calm,-,N/A,,Clear,0,2013-11-17 00:55:00
8:15 PM,55.4,55.4,100,30.20,7.0,Calm,Calm,-,N/A,,Clear,0,2013-11-17 01:15:00
8:35 PM,55.4,55.4,100,30.20,7.0,Calm,Calm,-,N/A,,Clear,0,2013-11-17 01:35:00
8:55 PM,53.6,53.6,100,30.20,7.0,Calm,Calm,-,N/A,,Clear,0,2013-11-17 01:55:00
9:15 PM,53.6,53.6,100,30.21,5.0,Calm,Calm,-,N/A,,Clear,0,2013-11-17 02:15:00
9:35 PM,53.6,53.6,100,30.20,5.0,Calm,Calm,-,N/A,,Clear,0,2013-11-17 02:35:00
9:55 PM,51.8,51.8,100,30.21,5.0,Calm,Calm,-,N/A,,Clear,0,2013-11-17 02:55:00
10:15 PM,51.8,51.8,100,30.21,7.0,Calm,Calm,-,N/A,,Clear,0,2013-11-17 03:15:00
10:35 PM,51.8,51.8,100,30.21,5.0,Calm,Calm,-,N/A,,Clear,0,2013-11-17 03:35:00
10:55 PM,51.8,51.8,100,30.21,7.0,Calm,Calm,-,N/A,,Clear,0,2013-11-17 03:55:00
11:15 PM,51.8,51.8,100,30.21,7.0,Calm,Calm,-,N/A,,Clear,0,2013-11-17 04:15:00
11:35 PM,51.8,51.8,100,30.22,7.0,Calm,Calm,-,N/A,,Mostly Cloudy,0,2013-11-17 04:35:00
11:55 PM,53.6,53.6,100,30.22,7.0,Calm,Calm,-,N/A,,Overcast,0,2013-11-17 04:55:00